Mattoon, IL

12:03 AM CST on February 26, 2017 (GMT -0600)
Coles County Memorial

Weather History for KMTO - October, 2012

Change the Weather History Date:

Tuesday, October 23, 2012

  Actual Average Record
Temperature  
Mean Temperature 64 °F 52 °F  
Max Temperature 69 °F 63 °F 82 °F (1963)
Min Temperature 58 °F 42 °F 22 °F (1981)
Degree Days  
Heating Degree Days 1 13  
Month to date heating degree days 248 221  
Since 1 July heating degree days 332 292  
Cooling Degree Days 0 0  
Month to date cooling degree days 2 15  
Year to date cooling degree days 1378 1053  
Growing Degree Days 12 (Base 50)    
Moisture  
Dew Point 57 °F    
Average Humidity 76    
Maximum Humidity 93    
Minimum Humidity 58    
Precipitation  
Precipitation 0.71 in 0.10 in 1.70 in (1951)
Month to date precipitation 3.56 2.11  
Year to date precipitation 28.92 31.08  
Sea Level Pressure  
Sea Level Pressure 29.96 in    
Wind  
Wind Speed 9 mph (South)    
Max Wind Speed 20 mph    
Max Gust Speed 28 mph    
Visibility 8 miles    
Events Rain , Thunderstorm    
T = Trace of Precipitation, MM = Missing Value Source: NWS Daily Summary

Daily Weather History Graph

Daily Weather History Graph

Search for Another Location

Airport or City:

Trip Planner

Search our weather history database for the weather conditions in past years. The results will help you decide how hot, cold, wet, or windy it might be!

Date:

Astronomy

Oct. 23, 2012 Rise Set
Actual Time 7:11 AM CDT 6:02 PM CDT
Civil Twilight 6:44 AM CDT 6:29 PM CDT
Nautical Twilight 6:13 AM CDT 7:00 PM CDT
Astronomical Twilight 5:41 AM CDT 7:32 PM CDT
Moon 2:44 PM CDT (10/23) 1:05 AM CDT (10/23)
Length of Visible Light 11h 44m
Length of Day
10h 50m
Waxing Gibbous, 67% of the Moon is Illuminated
Oct 23
Waxing Gibbous
Oct 29
Full
Nov 6
Last Quarter
Nov 13
New
Nov 20
First Quarter

Hourly Weather History & Observations

Time (CDT) Temp. Dew Point Humidity Pressure Visibility Wind Dir Wind Speed Gust Speed Precip Events Conditions
1:53 AM 64.9 °F 51.1 °F 61% 29.94 in 10.0 mi South 6.9 mph - N/A   Overcast
2:53 AM 64.9 °F 51.1 °F 61% 29.94 in 10.0 mi South 9.2 mph - N/A   Overcast
3:53 AM 64.0 °F 51.1 °F 63% 29.94 in 10.0 mi South 9.2 mph - N/A Thunderstorm Overcast
4:09 AM 64.4 °F 51.8 °F 64% 29.94 in 10.0 mi South 10.4 mph - 0.00 in Thunderstorm Overcast
4:34 AM 60.8 °F 55.4 °F 82% 29.94 in 1.5 mi SSW 16.1 mph 21.9 mph 0.16 in Rain , Thunderstorm Thunderstorms and Rain
4:46 AM 60.8 °F 55.4 °F 82% 29.96 in 3.0 mi SSW 9.2 mph - 0.33 in Rain , Thunderstorm Thunderstorms and Rain
4:53 AM 60.1 °F 55.0 °F 83% 29.95 in 1.5 mi SW 8.1 mph 16.1 mph 0.52 in Rain , Thunderstorm Heavy Thunderstorms and Rain
5:03 AM 57.2 °F 55.4 °F 94% 29.95 in 3.0 mi SSW 4.6 mph - 0.04 in Rain , Thunderstorm Light Thunderstorms and Rain
5:53 AM 60.1 °F 55.0 °F 83% 29.94 in 10.0 mi South 3.5 mph - 0.04 in   Overcast
6:53 AM 61.0 °F 54.0 °F 78% 29.95 in 10.0 mi South 8.1 mph - 0.02 in   Overcast
7:53 AM 61.0 °F 54.0 °F 78% 29.96 in 10.0 mi South 8.1 mph - N/A   Mostly Cloudy
8:53 AM 62.1 °F 54.0 °F 75% 29.98 in 10.0 mi South 9.2 mph - N/A   Overcast
9:53 AM 63.0 °F 54.0 °F 72% 29.98 in 10.0 mi South 9.2 mph - N/A   Overcast
10:53 AM 64.0 °F 55.9 °F 75% 30.01 in 10.0 mi SSW 9.2 mph - 0.00 in Rain , Thunderstorm Light Rain
11:03 AM 62.6 °F 57.2 °F 82% 30.02 in 2.5 mi SSW 15.0 mph 24.2 mph 0.04 in Rain Heavy Rain
11:22 AM 60.8 °F 59.0 °F 94% 30.01 in 5.0 mi SSW 6.9 mph - 0.09 in Rain Light Rain
11:53 AM 61.0 °F 60.1 °F 97% 29.99 in 10.0 mi South 5.8 mph - 0.12 in Rain Light Rain
12:53 PM 64.0 °F 61.0 °F 90% 29.98 in 10.0 mi South 6.9 mph - 0.00 in   Overcast
1:53 PM 66.0 °F 59.0 °F 78% 29.96 in 10.0 mi SSE 9.2 mph - N/A   Overcast
2:53 PM 68.0 °F 61.0 °F 78% 29.94 in 10.0 mi South 9.2 mph - 0.00 in   Mostly Cloudy
3:53 PM 68.0 °F 60.1 °F 76% 29.94 in 10.0 mi South 16.1 mph 21.9 mph N/A   Clear
4:53 PM 64.9 °F 61.0 °F 87% 29.92 in 10.0 mi South 10.4 mph - N/A   Scattered Clouds
6:53 PM 63.0 °F 60.1 °F 90% 29.93 in 10.0 mi SSE 10.4 mph - N/A   Scattered Clouds
7:53 PM 63.0 °F 59.0 °F 87% 29.93 in 10.0 mi SSE 10.4 mph - N/A   Clear
8:53 PM 64.0 °F 60.1 °F 87% 29.93 in 10.0 mi South 11.5 mph - N/A   Clear
9:53 PM 64.9 °F 59.0 °F 81% 29.94 in 10.0 mi South 9.2 mph - N/A   Clear
10:53 PM 66.0 °F 60.1 °F 81% 29.94 in 10.0 mi South 10.4 mph - N/A   Clear
11:53 PM 66.0 °F 57.9 °F 75% 29.95 in 10.0 mi SSW 9.2 mph - N/A   Clear